Bloomington, IN

1:19 AM EDT on March 27, 2017 (GMT -0400)
Monroe County

Weather History for KBMG - August, 2015

Change the Weather History Date:

Thursday, August 20, 2015

  Actual Average Record
Temperature  
Mean Temperature 67 °F 73 °F  
Max Temperature 76 °F 85 °F 93 °F (2007)
Min Temperature 57 °F 61 °F 51 °F (2012)
Degree Days  
Heating Degree Days 0 0  
Month to date heating degree days 0 0  
Since 1 June heating degree days 17 17  
Since 1 July heating degree days 0 2  
Cooling Degree Days 2 8  
Month to date cooling degree days 164 175  
Year to date cooling degree days 835 741  
Since 1 June cooling degree days 708 659  
Growing Degree Days 16 (Base 50)    
Moisture  
Dew Point 58 °F    
Average Humidity 70    
Maximum Humidity 93    
Minimum Humidity 46    
Precipitation  
Precipitation 0.01 in 0.12 in 0.81 in (2004)
Month to date precipitation 4.17 2.13  
Year to date precipitation 35.45 31.80  
Sea Level Pressure  
Sea Level Pressure 29.94 in    
Wind  
Wind Speed 6 mph (West)    
Max Wind Speed 14 mph    
Max Gust Speed 20 mph    
Visibility 10 miles    
Events      
T = Trace of Precipitation, MM = Missing Value Source: NWS Daily Summary

Daily Weather History Graph

Daily Weather History Graph

Search for Another Location

Airport or City:

Trip Planner

Search our weather history database for the weather conditions in past years. The results will help you decide how hot, cold, wet, or windy it might be!

Date:

Astronomy

Aug. 20, 2015 Rise Set
Actual Time 7:03 AM EDT 8:35 PM EDT
Civil Twilight 6:35 AM EDT 9:03 PM EDT
Nautical Twilight 6:01 AM EDT 9:37 PM EDT
Astronomical Twilight 5:25 AM EDT 10:12 PM EDT
Moon 12:34 PM EDT (8/20) 11:42 PM EDT (8/20)
Length of Visible Light 14h 27m
Length of Day
13h 31m
Waxing Crescent, 30% of the Moon is Illuminated
Aug 20
Waxing Crescent
Aug 22
First Quarter
Aug 29
Full
Sep 5
Last Quarter
Sep 13
New

Hourly Weather History & Observations

Time (EDT) Temp. Dew Point Humidity Pressure Visibility Wind Dir Wind Speed Gust Speed Precip Events Conditions
12:41 AM 68.0 °F 66.0 °F 93% 29.83 in 10.0 mi West 8.1 mph - 0.02 in   Overcast
12:53 AM 68.0 °F 64.9 °F 90% 29.81 in 10.0 mi WNW 8.1 mph - 0.02 in   Overcast
1:53 AM 64.9 °F 60.1 °F 84% 29.84 in 10.0 mi WNW 6.9 mph - N/A   Overcast
2:53 AM 64.0 °F 60.1 °F 87% 29.84 in 10.0 mi West 5.8 mph - N/A   Overcast
3:41 AM 63.0 °F 61.0 °F 93% 29.87 in 10.0 mi Calm Calm - 0.01 in   Overcast
3:53 AM 63.0 °F 61.0 °F 93% 29.86 in 10.0 mi West 4.6 mph - 0.01 in   Mostly Cloudy
4:12 AM 62.1 °F 60.1 °F 93% 29.88 in 10.0 mi Variable 4.6 mph - N/A   Mostly Cloudy
4:23 AM 62.1 °F 60.1 °F 93% 29.88 in 10.0 mi West 4.6 mph - N/A   Mostly Cloudy
4:30 AM 62.1 °F 59.0 °F 90% 29.88 in 10.0 mi West 4.6 mph - N/A   Partly Cloudy
4:53 AM 61.0 °F 57.9 °F 90% 29.87 in 10.0 mi West 5.8 mph - N/A   Clear
5:53 AM 59.0 °F 55.9 °F 90% 29.88 in 10.0 mi WSW 3.5 mph - N/A   Clear
6:53 AM 57.9 °F 55.9 °F 93% 29.90 in 10.0 mi West 4.6 mph - N/A   Clear
7:53 AM 59.0 °F 57.0 °F 93% 29.92 in 10.0 mi WSW 5.8 mph - N/A   Clear
8:53 AM 61.0 °F 57.9 °F 90% 29.95 in 10.0 mi West 6.9 mph - N/A   Clear
9:53 AM 64.9 °F 57.9 °F 78% 29.97 in 10.0 mi West 10.4 mph - N/A   Clear
10:53 AM 68.0 °F 57.0 °F 68% 29.98 in 10.0 mi West 9.2 mph 18.4 mph N/A   Clear
11:53 AM 71.1 °F 55.0 °F 57% 30.00 in 10.0 mi West 9.2 mph - N/A   Clear
12:53 PM 73.0 °F 55.0 °F 53% 29.99 in 10.0 mi WNW 11.5 mph 18.4 mph N/A   Clear
1:53 PM 73.9 °F 53.1 °F 48% 30.00 in 10.0 mi West 11.5 mph - N/A   Partly Cloudy
2:53 PM 75.9 °F 54.0 °F 46% 30.00 in 10.0 mi WNW 10.4 mph 18.4 mph N/A   Scattered Clouds
3:53 PM 75.9 °F 55.0 °F 48% 29.99 in 10.0 mi Variable 5.8 mph - N/A   Partly Cloudy
4:53 PM 75.9 °F 54.0 °F 46% 29.98 in 10.0 mi Variable 6.9 mph - N/A   Scattered Clouds
5:53 PM 75.9 °F 54.0 °F 46% 30.00 in 10.0 mi West 6.9 mph - N/A   Scattered Clouds
6:53 PM 73.9 °F 54.0 °F 50% 30.00 in 10.0 mi West 5.8 mph - N/A   Partly Cloudy
7:53 PM 72.0 °F 57.9 °F 61% 30.01 in 10.0 mi Calm Calm - N/A   Clear
8:53 PM 63.0 °F 60.1 °F 90% 30.02 in 10.0 mi Calm Calm - N/A   Clear
9:53 PM 60.1 °F 57.9 °F 93% 30.04 in 10.0 mi Calm Calm - N/A   Clear
10:53 PM 59.0 °F 57.0 °F 93% 30.06 in 10.0 mi Calm Calm - N/A   Clear
11:53 PM 57.9 °F 55.9 °F 93% 30.06 in 10.0 mi Calm Calm - N/A   Clear